Regional Weather Roundup
Issued by NWS Glasgow, MT

Home | Current Version | Previous Version | Text Only | Print | Product List | Glossary On
Versions: 1 2 3 4 5 6 7 8 9 10 11 12 13 14 15 16 17 18 19 20 21 22 23 24 25 26 27 28 29 30 31 32 33 34 35 36 37 38 39 40 41 42 43 44 45 46 47 48 49 50
359
ASUS45 KGGW 260015
RWRGGW
HOURLY REGIONAL WEATHER ROUNDUP FOR NORTHEAST MONTANA
NATIONAL WEATHER SERVICE GLASGOW MONTANA
600 PM MDT MON JUL 25 2016

NOTE: "FAIR" INDICATES FEW OR NO CLOUDS BELOW 12,000 FEET WITH NO
SIGNIFICANT WEATHER AND/OR OBSTRUCTIONS TO VISISBILITY.

NORTHEAST MONTANA


CITY           SKY/WX    TMP DP  RH WIND       PRES   REMARKS
GLASGOW        SUNNY     91  54  28 NE6       29.95F
6HR MIN TEMP:  85; 6HR MAX TEMP:  93;

PLENTYWOOD       N/A     89  46  22 NW5         N/A
WOLF POINT     SUNNY     94  49  21 E5        29.95S
JORDAN           N/A     94  44  17 NE14      29.95S
WINNETT          N/A     92  42  17 N6G14       N/A
SIDNEY         SUNNY     90  54  29 NE12      29.95S
GLENDIVE       SUNNY     92  51  24 NE13      29.95S
MALTA            N/A     95  46  18 E2          N/A
SCOBEY           N/A     87  54  32 NE5       29.99S
OPHEIM           N/A     79  54  41 N7        29.75R

FORT PECK REPORTS


CITY           SKY/WX    TMP DP  RH WIND       PRES   REMARKS
FORT PECK        N/A     92  50  23 NE7         N/A
THE PINES        N/A     90  50  25 NE7         N/A

SOUTHEAST MONTANA


CITY           SKY/WX    TMP DP  RH WIND       PRES   REMARKS
BILLINGS       MOSUNNY   95  33  11 E13       29.96F
MILES CITY     SUNNY     98  39  13 VRB7      29.92S
BAKER          SUNNY     94  47  20 NE10      29.97S
LIVINGSTON     SUNNY     95  33  11 NW12      30.02S

CENTRAL MONTANA


CITY           SKY/WX    TMP DP  RH WIND       PRES   REMARKS
HAVRE            N/A     91  47  21 N6        29.97S
LEWISTOWN      SUNNY     85  50  29 N8        30.08F
GREAT FALLS    SUNNY     89  41  18 VRB6      30.03F
CUT BANK         N/A     82  49  31 N8G16     30.08F
HELENA         CLOUDY    90  41  18 N8        30.00S
BUTTE          CLOUDY    80  39  23 NW18G24   30.15R
BOZEMAN        CLOUDY    84  43  23 NW6       30.04S

WESTERN MONTANA


CITY           SKY/WX    TMP DP  RH WIND       PRES   REMARKS
MISSOULA       MOSUNNY   91  45  20 VRB3      30.00S
KALISPELL      NOT AVBL

NORTH DAKOTA


CITY           SKY/WX    TMP DP  RH WIND       PRES   REMARKS
WILLISTON      SUNNY     90  52  27 N10       29.97R
DICKINSON      SUNNY     91  47  21 N7        29.94S
MINOT          SUNNY     88  66  48 N9        29.94S
BISMARCK       SUNNY     93  64  38 CALM      29.91S

SOUTHERN SASKATCHEWAN


CITY           SKY/WX    TMP DP  RH WIND       PRES   REMARKS
REGINA         MOSUNNY   79  61  53 N16       30.01R
MOOSE JAW      PTSUNNY   77  63  61 N9        30.03R
ESTEVAN        MOSUNNY   84  61  45 E6        29.97S
SWIFT CURRENT  MOSUNNY   75  59  57 NE9       30.06S





USA.gov is the U.S. government's official web portal to all federal, state and local government web resources and services.